Location: Gisborne
(38.6530°S, 178.0040°E)
Time: 17:35:03
(UTC+13:00)

ARGOS - Pass Details

Date: 24 January 2019
Orbit: 821 x 834 km, 98.5° (Epoch: 22 October)

Event Time Altitude Azimuth Distance (km) Brightness Sun altitude
Rises 23:12:48 0° 176° (S) 3,391 7.1 -24.9°
Reaches altitude 10° 23:15:19 10° 183° (S) 2,451 6.4 -25.2°
Maximum altitude 23:20:17 38° 249° (WSW) 1,247 4.4 -25.7°
Enters shadow 23:24:07 16° 310° (NW) 2,047 5.1 -26.1°
